Weather History for KVLD - May, 2013

Change the Weather History Date:

Tuesday, May 28, 2013

  Actual Average Record
Temperature  
Mean Temperature 76 °F 77 °F  
Max Temperature 92 °F 88 °F 98 °F (2006)
Min Temperature 59 °F 65 °F 57 °F (2003)
Cooling Degree Days 11 12  
Month to date cooling degree days 240 242  
Year to date cooling degree days 506 377  
Growing Degree Days 26 (Base 50)    
Moisture  
Dew Point 60 °F    
Average Humidity 58    
Maximum Humidity 84    
Minimum Humidity 32    
Precipitation  
Precipitation 0.00 in 0.14 in 1.63 in (1999)
Month to date precipitation T 2.05  
Year to date precipitation 14.54 18.52  
Sea Level Pressure  
Sea Level Pressure 30.17 in    
Wind  
Wind Speed 6 mph (SE)    
Max Wind Speed 14 mph    
Max Gust Speed 20 mph    
Visibility 9 miles    
Events      
T = Trace of Precipitation, MM = Missing Value Source: NWS Daily Summary

Daily Weather History Graph

Daily Weather History Graph

Search for Another Location

Airport or City:

Trip Planner

Search our weather history database for the weather conditions in past years. The results will help you decide how hot, cold, wet, or windy it might be!

Date:

Astronomy

May. 28, 2013 Rise Set
Actual Time 6:31 AM EDT 8:29 PM EDT
Civil Twilight 6:04 AM EDT 8:56 PM EDT
Nautical Twilight 5:31 AM EDT 9:29 PM EDT
Astronomical Twilight 4:56 AM EDT 10:04 PM EDT
Moon No Moon Rise 10:12 AM EDT (5/28)
Length of Visible Light 14h 51m
Length of Day
13h 57m
Waning Gibbous, 83% of the Moon is Illuminated
May 28
Waning Gibbous
May 31
Last Quarter
Jun 8
New
Jun 16
First Quarter
Jun 23
Full

Hourly Weather History & Observations

Time (EDT) Temp. Heat Index Dew Point Humidity Pressure Visibility Wind Dir Wind Speed Gust Speed Precip Events Conditions
12:53 AM 72.0 °F - 61.0 °F 68% 30.21 in 10.0 mi SE 6.9 mph - N/A   Clear
1:53 AM 70.0 °F - 61.0 °F 73% 30.21 in 10.0 mi SSE 5.8 mph - N/A   Clear
2:53 AM 68.0 °F - 60.1 °F 76% 30.19 in 10.0 mi SE 3.5 mph - N/A   Clear
3:53 AM 66.0 °F - 60.1 °F 81% 30.17 in 10.0 mi SE 3.5 mph - N/A   Clear
4:53 AM 62.1 °F - 57.0 °F 84% 30.17 in 9.0 mi Calm Calm - N/A   Clear
5:35 AM 60.8 °F - 55.4 °F 82% 30.15 in 1.8 mi Calm Calm - N/A   Haze
5:45 AM 60.8 °F - 55.4 °F 82% 30.15 in 4.0 mi Calm Calm - N/A   Haze
5:53 AM 60.1 °F - 55.0 °F 83% 30.17 in 5.0 mi Calm Calm - N/A   Haze
6:53 AM 60.1 °F - 55.0 °F 83% 30.17 in 4.0 mi Calm Calm - N/A   Haze
7:53 AM 68.0 °F - 61.0 °F 78% 30.19 in 10.0 mi Calm Calm - N/A   Clear
8:53 AM 75.0 °F - 63.0 °F 66% 30.20 in 10.0 mi SE 5.8 mph - N/A   Scattered Clouds
9:53 AM 80.1 °F 81.2 °F 62.1 °F 54% 30.21 in 10.0 mi SSE 11.5 mph 17.3 mph N/A   Partly Cloudy
10:53 AM 82.9 °F 83.3 °F 61.0 °F 47% 30.21 in 10.0 mi SE 6.9 mph - N/A   Scattered Clouds
11:53 AM 84.9 °F 84.8 °F 60.1 °F 43% 30.21 in 10.0 mi East 8.1 mph - N/A   Scattered Clouds
12:53 PM 87.1 °F 86.5 °F 59.0 °F 39% 30.20 in 10.0 mi SSE 10.4 mph 16.1 mph N/A   Partly Cloudy
1:53 PM 89.1 °F 88.0 °F 57.9 °F 35% 30.18 in 10.0 mi SSE 10.4 mph 18.4 mph N/A   Scattered Clouds
2:53 PM 90.0 °F 89.1 °F 59.0 °F 35% 30.16 in 10.0 mi ESE 10.4 mph - N/A   Partly Cloudy
3:53 PM 90.0 °F 88.8 °F 57.9 °F 34% 30.14 in 10.0 mi East 10.4 mph 16.1 mph N/A   Scattered Clouds
4:53 PM 91.0 °F 90.0 °F 57.9 °F 33% 30.13 in 10.0 mi SSE 4.6 mph - N/A   Partly Cloudy
5:53 PM 90.0 °F 89.1 °F 59.0 °F 35% 30.12 in 10.0 mi SE 6.9 mph - N/A   Partly Cloudy
6:53 PM 88.0 °F 87.6 °F 60.1 °F 39% 30.11 in 10.0 mi ESE 6.9 mph - N/A   Clear
7:53 PM 84.9 °F 85.0 °F 61.0 °F 44% 30.12 in 10.0 mi ESE 6.9 mph - N/A   Scattered Clouds
8:53 PM 81.0 °F 81.9 °F 62.1 °F 52% 30.14 in 10.0 mi East 8.1 mph - N/A   Clear
9:53 PM 79.0 °F - 63.0 °F 58% 30.15 in 10.0 mi East 8.1 mph - N/A   Clear
10:53 PM 77.0 °F - 64.0 °F 64% 30.18 in 10.0 mi ESE 6.9 mph - N/A   Clear
11:53 PM 73.9 °F - 64.0 °F 71% 30.19 in 10.0 mi ESE 5.8 mph - N/A   Clear